User: anonymous   Login
Location: Friaudour
(46.0460°N, 1.2873°E)
Time: 19:38:44
(UTC+00:00)
Language:

Cosmos 1975 Rocket - Orbit

View from above orbital plane
View from above orbital plane
View from above satellite
View from above satellite

Ground track
Ground track

The orbit data is extracted from the following two-line orbital elements,

1 19574U 88093B   20263.52866332 +.00000065 +00000-0 +49941-5 0  9995
2 19574 082.5296 112.0877 0022370 148.3580 272.9448 14.83337350704812
Epoch (UTC): 19 September 2020 12:41:16
Eccentricity: 0.0022370
inclination: 82.5296°
perigee height: 603 km
apogee height: 634 km
right ascension of ascending node: 112.0877°
argument of perigee: 148.3580°
revolutions per day: 14.83337350
mean anomaly at epoch: 272.9448°
orbit number at epoch: 70481

The dashed part of the orbit path shows where the satellite is in the earth's shadow,  

DLR